Weather observations for the past three days for
Kennett - Kennett Memorial Airport
Imperial (Metric)
Date Time (cdt) Wind (mph) Vis. (mi.) Weather Sky Cond. Temperature (ºF) Relative Humidity Wind Chill (°F) Heat Index (°F) Pressure Precipitation (in)
Air Dwpt 6 hour altimeter (in) sea level (mb) 1 hr 3 hr 6 hr
Max. Min.
12 05:55 Calm 4.00 Fog/Mist CLR 71.6 71.6 100% 30.07 0.0
12 05:35 Calm 4.00 Fog/Mist CLR 69.8 69.8 100% 30.06 0.0
12 05:15 Calm 5.00 Fog/Mist CLR 69.8 69.8 100% 30.05 0.0
12 04:55 Calm 2.50 Fog/Mist CLR 69.8 69.8 100% 30.04 0.0
12 04:35 Calm 3.00 Fog/Mist CLR 71.6 71.6 100% 30.03 0.0
12 04:15 Calm 4.00 Fog/Mist CLR 71.6 71.6 100% 30.03 0.0
12 03:55 Calm 2.50 Fog/Mist CLR 71.6 71.6 100% 30.03 0.0
12 03:35 Calm 4.00 Fog/Mist CLR 71.6 71.6 100% 30.02 0.0
12 03:15 Calm 5.00 Fog/Mist CLR 71.6 71.6 100% 30.03 0.0
12 02:55 S 3 3.00 Fog/Mist CLR 73.4 73.4 100% 30.02 0.0
12 02:35 Calm 6.00 Fog/Mist FEW100 73.4 73.4 100% 30.02 0.0
12 02:15 Calm 6.00 Fog/Mist SCT095 73.4 73.4 100% 30.03 0.0
12 01:55 Calm 5.00 Fog/Mist CLR 73.4 73.4 100% 30.03 0.0
12 01:35 Calm 5.00 Fog/Mist CLR 73.4 73.4 100% 30.03 0.0
12 01:15 Calm 6.00 Fog/Mist CLR 73.4 73.4 100% 30.03 0.0
12 00:55 Calm 7.00 Fair CLR 75.2 75.2 100% 73 30.04 0.0
12 00:35 Calm 5.00 Fog/Mist CLR 73.4 73.4 100% 30.04 0.0
12 00:15 Calm 5.00 Fog/Mist CLR 75.2 75.2 100% 73 30.05 0.0
11 23:55 Calm 5.00 Fog/Mist CLR 75.2 75.2 100% 73 30.05 0.0
11 23:35 Calm 6.00 Fog/Mist CLR 75.2 75.2 100% 73 30.05 0.0
11 23:15 Calm 7.00 Fair CLR 75.2 75.2 100% 73 30.05 0.0
11 22:55 Calm 7.00 Fair CLR 75.2 75.2 100% 73 30.04 0.0
11 22:35 Calm 6.00 Fog/Mist CLR 75.2 75.2 100% 73 30.04 0.0
11 22:15 Calm 7.00 Fair CLR 77 75.2 94% 78 30.04 0.0
11 21:55 Calm 8.00 Fair CLR 77 75.2 94% 78 30.03 0.0
11 21:35 S 5 7.00 Fair CLR 77 77 100% 78 30.03 0.0
11 21:15 S 5 9.00 Fair CLR 78.8 77 94% 83 30.02 0.0
11 20:55 S 5 8.00 Fair CLR 77 77 100% 78 30.02 0.0
11 20:35 Calm 10.00 Fair CLR 80.6 75.2 84% 86 30.01 0.0
11 20:15 S 5 10.00 Fair CLR 80.6 75.2 84% 86 30.01 0.0
11 19:55 S 3 10.00 Fair CLR 84.2 73.4 70% 91 30.01 0.0
11 19:35 S 3 10.00 Fair CLR 86 73.4 66% 93 30.02 0.0
11 19:15 Calm 10.00 A Few Clouds FEW046 87.8 73.4 62% 96 30.02 0.0
11 18:55 SW 5 10.00 A Few Clouds FEW045 87.8 73.4 62% 96 30.01 0.0
11 18:15 S 6 10.00 Fair CLR 89.6 71.6 55% 96 30 0.0
11 17:55 S 5 10.00 Fair CLR 89.6 71.6 55% 96 30.01 0.0
11 17:35 S 7 10.00 A Few Clouds FEW048 89.6 71.6 55% 96 30 0.0
11 17:15 S 6 10.00 Fair CLR 89.6 71.6 55% 96 30.01 0.0
11 16:55 SW 6 10.00 A Few Clouds FEW050 FEW090 91.4 69.8 49% 97 30.01 0.0
11 16:35 S 6 10.00 Mostly Cloudy BKN048 91.4 69.8 49% 97 30.02 0.0
11 16:15 Calm 10.00 A Few Clouds FEW048 FEW055 89.6 69.8 52% 95 30.02 0.0
11 15:55 SW 8 10.00 Partly Cloudy FEW048 SCT055 91.4 71.6 52% 99 30.02 0.0
11 15:35 SW 8 G 15 10.00 A Few Clouds FEW045 91.4 71.6 52% 99 30.03 0.0
11 15:15 SW 8 10.00 A Few Clouds FEW046 91.4 71.6 52% 99 30.03 0.0
11 14:55 Vrbl 3 10.00 A Few Clouds FEW045 FEW055 FEW095 89.6 69.8 52% 95 30.03 0.0
11 14:35 SW 6 10.00 A Few Clouds FEW045 FEW050 89.6 69.8 52% 95 30.03 0.0
11 14:15 Vrbl 6 10.00 Mostly Cloudy SCT045 BKN050 BKN060 89.6 69.8 52% 95 30.04 0.0
11 13:55 Vrbl 6 10.00 Partly Cloudy SCT046 SCT050 SCT060 87.8 71.6 59% 94 30.04 0.0
11 13:35 W 6 10.00 Fair CLR 89.6 69.8 52% 95 30.04 0.0
11 13:15 SW 7 10.00 Fair CLR 89.6 68 49% 93 30.05 0.0
11 12:55 SW 8 10.00 A Few Clouds FEW049 FEW060 89.6 69.8 52% 95 30.05 0.0
11 12:35 SW 6 G 12 10.00 A Few Clouds FEW038 87.8 69.8 55% 93 30.05 0.0
11 12:15 SW 8 10.00 Fair CLR 87.8 71.6 59% 94 30.06 0.0
11 11:35 Calm 10.00 Fair CLR 86 73.4 66% 93 30.06 0.0
11 11:15 Calm 10.00 Fair CLR 86 73.4 66% 93 30.06 0.0
11 10:55 W 6 9.00 Fair CLR 86 73.4 66% 93 30.06 0.0
11 10:35 Calm 10.00 Fair CLR 84.2 75.2 74% 92 30.06 0.0
11 10:15 SW 7 9.00 Fair CLR 84.2 73.4 70% 91 30.06 0.0
11 09:55 Calm 9.00 Fair CLR 82.4 73.4 74% 88 30.06 0.0
11 09:35 Calm 8.00 Fair CLR 82.4 73.4 74% 88 30.06 0.0
11 09:15 Vrbl 5 7.00 Fair CLR 80.6 73.4 79% 85 30.06 0.0
11 08:55 Calm 7.00 Fair CLR 80.6 73.4 79% 85 30.06 0.0
11 08:35 Calm 6.00 Fair with Haze CLR 78.8 71.6 79% 82 30.06 0.0
11 08:15 Calm 6.00 Fair with Haze CLR 77 71.6 83% 78 30.07 0.0
11 07:35 Calm 5.00 Fog/Mist CLR 75.2 71.6 89% 75 30.06 0.0
11 07:15 Calm 9.00 Fair CLR 73.4 71.6 94% 30.06 0.0
11 06:55 Calm 7.00 Fair CLR 71.6 71.6 100% 30.05 0.0
11 06:35 Calm 6.00 Fog/Mist CLR 69.8 69.8 100% 30.04 0.0
11 06:15 S 3 4.00 Fog/Mist CLR 68 68 100% 30.04 0.0
11 05:55 Calm 3.00 Fog/Mist CLR 68 68 100% 30.03 0.0
11 05:35 S 5 3.00 Fog/Mist CLR 68 68 100% 30.02 0.0
11 05:15 Calm 5.00 Fog/Mist CLR 68 68 100% 30.02 0.0
11 04:55 SE 3 5.00 Fog/Mist CLR 68 68 100% 30.02 0.0
11 04:35 W 3 5.00 Fog/Mist CLR 69.8 69.8 100% 30.01 0.0
11 04:15 Calm 5.00 Fog/Mist CLR 68 68 100% 30 0.0
11 03:55 Calm 5.00 Fog/Mist CLR 69.8 69.8 100% 29.99 0.0
11 03:35 Calm 5.00 Fog/Mist CLR 69.8 69.8 100% 29.99 0.0
11 03:15 Calm 5.00 Fog/Mist CLR 69.8 69.8 100% 29.99 0.0
11 02:55 S 3 6.00 Fog/Mist CLR 71.6 69.8 94% 29.99 0.0
11 02:35 Calm 6.00 Fog/Mist CLR 71.6 71.6 100% 30 0.0
11 02:15 Calm 5.00 Fog/Mist CLR 71.6 71.6 100% 30 0.0
11 01:35 SW 3 5.00 Fog/Mist CLR 71.6 71.6 100% 30.01 0.0
11 01:15 W 5 6.00 Fog/Mist CLR 71.6 71.6 100% 30.01 0.0
11 00:35 SW 5 7.00 Fair CLR 71.6 71.6 100% 30.02 0.0
11 00:15 SW 3 7.00 Fair CLR 73.4 71.6 94% 30.02 0.0
10 23:55 SW 3 6.00 Fog/Mist CLR 73.4 71.6 94% 30.02 0.0
10 23:35 Calm 6.00 Fog/Mist CLR 73.4 73.4 100% 30.02 0.0
10 23:15 SW 3 7.00 Fair CLR 73.4 73.4 100% 30.02 0.0
10 22:55 Calm 6.00 Fog/Mist CLR 73.4 73.4 100% 30.02 0.0
10 22:35 Calm 10.00 Fair CLR 73.4 73.4 100% 30.02 0.0
10 22:15 Calm 10.00 Fair CLR 73.4 73.4 100% 30.01 0.0
10 21:55 Calm 10.00 Fair CLR 73.4 73.4 100% 30.01 0.0
10 21:35 Calm 10.00 Fair CLR 75.2 73.4 94% 74 30.01 0.0
10 21:15 Calm 10.00 Fair CLR 75.2 73.4 94% 74 30 0.0
10 20:55 Calm 9.00 Fair CLR 75.2 71.6 89% 75 29.99 0.0
10 20:35 Calm 10.00 Fair CLR 77 73.4 89% 78 29.99 0.0
10 20:15 Calm 9.00 Fair CLR 80.6 71.6 74% 85 29.98 0.0
10 19:55 Calm 10.00 Fair CLR 82.4 71.6 70% 87 29.98 0.0
10 19:35 W 3 10.00 Fair CLR 84.2 69.8 62% 88 29.98 0.0
10 19:15 Calm 10.00 Fair CLR 86 68 55% 89 29.97 0.0
10 18:55 Calm 10.00 A Few Clouds FEW048 86 68 55% 89 29.97 0.0
10 18:35 W 7 10.00 Partly Cloudy SCT047 86 68 55% 89 29.97 0.0
10 18:15 SW 5 10.00 A Few Clouds FEW046 87.8 68 52% 91 29.98 0.0
10 17:55 Calm 10.00 A Few Clouds FEW049 86 68 55% 89 29.98 0.0
10 17:35 W 8 10.00 Mostly Cloudy BKN048 87.8 68 52% 91 29.98 0.0
10 17:15 Vrbl 3 10.00 Partly Cloudy SCT046 87.8 68 52% 91 29.99 0.0
10 16:55 NW 5 G 12 10.00 A Few Clouds FEW046 87.8 66.2 49% 90 29.99 0.0
10 16:35 NW 5 10.00 A Few Clouds FEW046 86 68 55% 89 29.99 0.0
10 16:15 W 7 10.00 Partly Cloudy SCT045 87.8 68 52% 91 29.99 0.0
10 15:55 NW 6 10.00 A Few Clouds FEW046 87.8 68 52% 91 29.99 0.0
10 15:35 W 7 G 14 10.00 A Few Clouds FEW048 86 68 55% 89 29.99 0.0
10 15:15 Vrbl 3 G 15 10.00 A Few Clouds FEW042 86 68 55% 89 30 0.0
10 14:55 W 8 9.00 Mostly Cloudy BKN043 BKN050 86 68 55% 89 30 0.0
10 14:35 W 9 10.00 Mostly Cloudy BKN043 BKN050 86 68 55% 89 30.01 0.0
10 14:15 Vrbl 7 10.00 A Few Clouds FEW044 86 69.8 59% 91 30.01 0.0
10 13:55 Vrbl 6 G 12 9.00 A Few Clouds FEW039 86 68 55% 89 30.01 0.0
10 13:35 W 8 9.00 Partly Cloudy SCT039 84.2 68 58% 87 30.01 0.0
10 13:15 NW 8 10.00 A Few Clouds FEW036 84.2 69.8 62% 88 30.01 0.0
10 12:55 W 7 9.00 Fair CLR 84.2 69.8 62% 88 30.02 0.0
10 12:35 Vrbl 6 G 13 9.00 A Few Clouds FEW036 FEW044 84.2 68 58% 87 30.01 0.0
10 11:55 W 7 9.00 A Few Clouds FEW030 82.4 71.6 70% 87 30.03 0.0
10 11:35 NW 9 9.00 A Few Clouds FEW030 82.4 69.8 66% 86 30.02 0.0
10 11:15 NW 8 8.00 A Few Clouds FEW030 80.6 69.8 70% 84 30.03 0.0
10 10:55 W 5 8.00 Fair CLR 80.6 71.6 74% 85 30.02 0.0
10 10:35 Vrbl 5 6.00 Fair with Haze CLR 80.6 71.6 74% 85 30.02 0.0
10 10:15 Vrbl 6 6.00 Fair with Haze CLR 78.8 69.8 74% 81 30.02 0.0
10 09:55 Vrbl 7 6.00 Fair with Haze CLR 78.8 69.8 74% 81 30.02 0.0
10 09:35 NW 8 6.00 Fair with Haze CLR 77 69.8 79% 79 30.02 0.0
10 09:15 W 8 5.00 Fair with Haze CLR 75.2 69.8 83% 75 30.02 0.0
10 08:55 W 7 5.00 Fair with Haze CLR 73.4 69.8 89% 30.02 0.0
10 08:35 W 7 5.00 Fair with Haze CLR 73.4 68 83% 30.02 0.0
10 08:15 W 6 5.00 Fog/Mist CLR 71.6 68 88% 30.02 0.0
10 07:55 W 7 4.00 Fog/Mist CLR 69.8 68 94% 30.01 0.0
10 07:35 W 9 4.00 Fog/Mist CLR 69.8 68 94% 30.01 0.0
10 07:15 W 8 4.00 Fog/Mist CLR 68 68 100% 30 0.0
10 06:55 SW 8 4.00 Fog/Mist CLR 68 66.2 94% 29.99 0.0
10 06:35 SW 7 4.00 Fog/Mist CLR 66.2 66.2 100% 29.99 0.0
10 06:15 SW 6 4.00 Fog/Mist CLR 66.2 66.2 100% 29.98 0.0
10 05:55 SW 8 5.00 Fog/Mist CLR 64.4 64.4 100% 29.98 0.0
10 05:35 Calm 5.00 Fog/Mist CLR 64.4 64.4 100% 29.97 0.0
10 05:15 SW 6 5.00 Fog/Mist CLR 64.4 64.4 100% 29.96 0.0
10 04:55 W 5 5.00 Fog/Mist CLR 64.4 64.4 100% 29.96 0.0
10 04:35 W 5 5.00 Fog/Mist CLR 64.4 64.4 100% 29.95 0.0
10 04:15 SW 5 5.00 Fog/Mist CLR 66.2 66.2 100% 29.95 0.0
10 03:55 SW 3 5.00 Fog/Mist CLR 64.4 64.4 100% 29.94 0.0
10 03:35 SW 5 5.00 Fog/Mist CLR 66.2 66.2 100% 29.94 0.0
10 03:15 W 5 5.00 Fog/Mist CLR 66.2 66.2 100% 29.94 0.0
10 02:55 W 5 5.00 Fog/Mist CLR 66.2 66.2 100% 29.93 0.0
10 02:35 W 6 6.00 Fog/Mist CLR 66.2 66.2 100% 29.93 0.0
10 02:15 W 5 5.00 Fog/Mist CLR 66.2 66.2 100% 29.93 0.0
10 01:55 W 5 5.00 Fog/Mist CLR 68 66.2 94% 29.92 0.0
10 01:35 W 7 5.00 Fog/Mist CLR 68 66.2 94% 29.92 0.0
10 01:15 W 6 5.00 Fog/Mist CLR 68 66.2 94% 29.92 0.0
10 00:55 W 7 5.00 Fog/Mist CLR 68 66.2 94% 29.92 0.0
10 00:35 W 7 6.00 Fog/Mist CLR 69.8 68 94% 29.92 0.0
10 00:15 W 9 5.00 Fog/Mist CLR 69.8 68 94% 29.92 0.0
09 23:55 W 10 6.00 Fog/Mist CLR 69.8 68 94% 29.92 0.0
09 23:35 W 9 5.00 Fog/Mist FEW029 69.8 68 94% 29.91 0.0
09 23:15 W 9 6.00 Fog/Mist OVC029 69.8 68 94% 29.91 0.0
09 22:55 W 9 6.00 Fog/Mist BKN029 OVC060 69.8 68 94% 29.91 0.0
09 22:35 W 12 6.00 Fog/Mist OVC060 69.8 68 94% 29.9 0.0
09 22:15 W 10 5.00 Fog/Mist BKN055 69.8 68 94% 29.89 0.0
09 21:55 W 12 6.00 Fog/Mist FEW044 OVC055 69.8 68 94% 29.89 0.0
09 21:35 W 9 5.00 Fog/Mist FEW048 SCT055 69.8 68 94% 29.88 0.0
09 21:15 W 8 5.00 Fog/Mist SCT048 69.8 68 94% 29.87 0.0
09 20:55 W 10 6.00 Fog/Mist FEW032 FEW039 BKN047 69.8 68 94% 29.86 0.0
09 20:35 NW 10 3.00 Fog/Mist SCT013 BKN031 OVC046 69.8 68 94% 29.85 0.0
09 20:15 W 15 G 22 2.00 Fog/Mist FEW012 SCT017 BKN026 69.8 69.8 100% 29.85 0.0
09 19:55 W 14 G 21 4.00 Fog/Mist BKN025 OVC030 71.6 69.8 94% 29.84 0.0
09 19:35 NW 13 G 20 4.00 Fog/Mist BKN019 OVC024 71.6 69.8 94% 29.83 0.0
09 19:15 NW 12 G 20 4.00 Fog/Mist BKN017 OVC021 71.6 69.8 94% 29.82 0.0
09 18:55 NW 13 5.00 Fog/Mist BKN016 BKN021 BKN028 71.6 69.8 94% 29.81 0.0
09 18:35 NW 15 G 23 1.75 Fog/Mist FEW009 BKN015 OVC028 69.8 69.8 100% 29.79 0.0
09 18:15 NW 12 G 25 3.00 Fog/Mist BKN016 OVC020 69.8 69.8 100% 29.78 0.0
09 17:55 NW 15 G 24 4.00 Fog/Mist BKN013 OVC018 69.8 69.8 100% 29.77 0.0
09 17:35 NW 9 G 24 4.00 Fog/Mist BKN010 BKN013 OVC021 71.6 69.8 94% 29.76 0.0
09 17:15 NW 17 G 24 5.00 Fog/Mist FEW008 BKN012 BKN018 71.6 71.6 100% 29.75 0.0
09 16:55 SW 10 1.00 Heavy Rain SCT006 BKN009 OVC033 73.4 73.4 100% 29.73 0.0
09 16:35 W 12 1.00 Fog/Mist BKN005 BKN009 OVC022 73.4 73.4 100% 29.73 0.0
09 16:15 SW 16 1.50 Fog/Mist SCT013 BKN023 BKN030 73.4 73.4 100% 29.73 0.0
09 15:55 SW 15 4.00 Fog/Mist SCT012 BKN021 BKN037 75.2 73.4 94% 74 29.73 0.0
09 15:35 SW 12 G 17 4.00 Fog/Mist SCT012 BKN038 OVC065 75.2 73.4 94% 74 29.72 0.0
09 15:15 S 14 G 21 5.00 Fog/Mist FEW013 BKN023 OVC060 75.2 73.4 94% 74 29.73 0.0
09 14:35 S 12 2.50 Fog/Mist FEW009 SCT014 BKN021 73.4 73.4 100% 29.73 0.0
09 14:15 SW 16 5.00 Fog/Mist FEW021 SCT029 BKN042 75.2 73.4 94% 74 29.73 0.0
09 13:55 SW 12 G 20 4.00 Fog/Mist FEW014 SCT021 BKN040 73.4 73.4 100% 29.73 0.0
09 13:35 SW 21 2.50 Light Rain and Breezy BKN015 BKN019 OVC029 75.2 73.4 94% 74 29.73 0.0
09 13:15 SW 12 G 17 5.00 Fog/Mist FEW012 SCT018 BKN043 77 75.2 94% 78 29.72 0.0
09 12:55 S 16 4.00 Fog/Mist BKN055 BKN070 75.2 75.2 100% 73 29.73 0.0
09 12:35 S 15 G 22 2.50 Fog/Mist FEW016 SCT040 BKN050 75.2 73.4 94% 74 29.74 0.0
09 12:15 SW 14 4.00 Fog/Mist SCT042 BKN050 75.2 75.2 100% 73 29.74 0.0
09 11:55 SW 21 G 31 1.00 Fog/Mist and Breezy SCT014 SCT022 BKN030 73.4 73.4 100% 29.74 0.0
09 11:35 SW 22 G 36 3.00 Light Rain and Breezy FEW003 SCT017 BKN029 75.2 75.2 100% 73 29.74 0.0
09 11:15 Vrbl 6 G 14 0.75 Heavy Rain BKN003 BKN015 OVC021 77 77 100% 78 29.73 0.0
09 10:55 E 10 G 16 1.75 Light Drizzle SCT007 BKN018 OVC046 77 75.2 94% 78 29.73 0.0
09 10:35 E 14 4.00 Fog/Mist FEW013 SCT044 BKN065 77 75.2 94% 78 29.74 0.0
09 10:15 SE 14 G 21 4.00 Fog/Mist FEW013 FEW020 SCT026 78.8 75.2 89% 82 29.76 0.0
09 09:55 E 9 G 15 4.00 Fog/Mist FEW008 SCT014 BKN021 75.2 75.2 100% 73 29.77 0.0
09 09:35 E 12 G 25 3.00 Fog/Mist SCT008 BKN013 OVC033 71.6 71.6 100% 29.78 0.0
09 09:15 E 15 3.00 Fog/Mist BKN007 OVC013 71.6 71.6 100% 29.78 0.0
09 08:55 E 10 G 16 2.50 Fog/Mist BKN008 BKN015 OVC028 71.6 71.6 100% 29.79 0.0
09 08:35 E 13 G 22 2.50 Light Drizzle FEW009 BKN016 OVC028 71.6 71.6 100% 29.79 0.0
09 08:15 E 15 G 21 1.25 Rain FEW003 SCT008 OVC022 71.6 71.6 100% 29.8 0.0
09 07:55 E 17 G 24 3.00 Fog/Mist SCT009 OVC023 71.6 69.8 94% 29.79 0.0
09 07:35 E 12 G 20 1.25 Light Rain OVC009 69.8 69.8 100% 29.82 0.0
09 07:15 NE 15 3.00 Light Drizzle FEW003 BKN007 OVC011 71.6 71.6 100% 29.83 0.0
09 06:55 NE 13 G 20 3.00 Rain FEW003 BKN007 OVC029 71.6 71.6 100% 29.83 0.0
09 06:35 NE 12 G 20 4.00 Light Rain OVC031 71.6 71.6 100% 29.84 0.0
09 06:15 NE 15 G 21 5.00 Fog/Mist OVC032 71.6 69.8 94% 29.84 0.0
Date Time (cdt) Wind (mph) Vis. (mi.) Weather Sky Cond. Air Dwpt Max. Min. Relative Humidity Wind Chill (°F) Heat Index (°F) altimeter (in) sea level (mb) 1 hr 3 hr 6 hr
6 hour
Temperature (ºF) Pressure Precipitation (in)